| time (UTC) | temp C | wind direction | speed KPH | gust KPH | rain 1hr cm | rain 24hr cm | rain mn cm | humidity % | barometer mb |
| 20260509010439 | 19 | 271 | 14.5 | 20.9 | 0.00 | 0.00 | 0.00 | 71 | |
| 20260509005834 | 19 | 262 | 14.5 | 22.5 | 0.00 | 0.00 | 0.00 | 70 | |
| 20260509005430 | 20 | 279 | 9.7 | 19.3 | 0.00 | 0.00 | 0.00 | 69 | |
| 20260509004420 | 20 | 264 | 8.0 | 20.9 | 0.00 | 0.00 | 0.00 | 68 | |
| 20260509004017 | 20 | 261 | 16.1 | 25.7 | 0.00 | 0.00 | 0.00 | 68 | |
| 20260509003612 | 20 | 254 | 12.9 | 22.5 | 0.00 | 0.00 | 0.00 | 67 | |
| 20260509003208 | 20 | 278 | 11.3 | 20.9 | 0.00 | 0.00 | 0.00 | 67 | |
| 20260509003007 | 20 | 255 | 11.3 | 20.9 | 0.00 | 0.00 | 0.00 | 66 | |
| 20260509002805 | 20 | 268 | 12.9 | 20.9 | 0.00 | 0.00 | 0.00 | 67 | |
| 20260509002603 | 20 | 262 | 9.7 | 20.9 | 0.00 | 0.00 | 0.00 | 67 | |
| 20260509002401 | 20 | 264 | 16.1 | 20.9 | 0.00 | 0.00 | 0.00 | 67 | |
| 20260509002158 | 20 | 278 | 19.3 | 19.3 | 0.00 | 0.00 | 0.00 | 66 | |
| 20260509001957 | 20 | 291 | 12.9 | 19.3 | 0.00 | 0.00 | 0.00 | 67 | |
| 20260509001755 | 20 | 261 | 14.5 | 17.7 | 0.00 | 0.00 | 0.00 | 66 | |
| 20260509001351 | 21 | 291 | 9.7 | 17.7 | 0.00 | 0.00 | 0.00 | 65 | |
| 20260509000947 | 21 | 278 | 12.9 | 19.3 | 0.00 | 0.00 | 0.00 | 64 | |
| 20260509000745 | 21 | 262 | 12.9 | 17.7 | 0.00 | 0.00 | 0.00 | 63 | |
| 20260509000341 | 21 | 284 | 11.3 | 17.7 | 0.00 | 0.00 | 0.00 | 63 | |
| 20260508235736 | 21 | 254 | 16.1 | 17.7 | 0.00 | 0.00 | 0.00 | 63 | |
| 20260508235533 | 21 | 272 | 6.4 | 17.7 | 0.00 | 0.00 | 0.00 | 64 | |
| 20260508235332 | 21 | 258 | 8.0 | 17.7 | 0.00 | 0.00 | 0.00 | 62 | |
| 20260508234928 | 21 | 323 | 6.4 | 20.9 | 0.00 | 0.00 | 0.00 | 63 | |
| 20260508234725 | 21 | 251 | 4.8 | 17.7 | 0.00 | 0.00 | 0.00 | 63 | |
| 20260508234524 | 21 | 281 | 14.5 | 17.7 | 0.00 | 0.00 | 0.00 | 62 | |
| 20260508234321 | 22 | 268 | 12.9 | 17.7 | 0.00 | 0.00 | 0.00 | 62 | |
| 20260508234120 | 22 | 279 | 14.5 | 19.3 | 0.00 | 0.00 | 0.00 | 63 | |
| 20260508233312 | 22 | 265 | 17.7 | 16.1 | 0.00 | 0.00 | 0.00 | 61 | |
| 20260508233110 | 22 | 267 | 11.3 | 16.1 | 0.00 | 0.00 | 0.00 | 62 | |
| 20260508232908 | 22 | 241 | 8.0 | 16.1 | 0.00 | 0.00 | 0.00 | 62 | |
| 20260508232706 | 22 | 255 | 14.5 | 17.7 | 0.00 | 0.00 | 0.00 | 61 | |
| 20260508232504 | 22 | 253 | 8.0 | 17.7 | 0.00 | 0.00 | 0.00 | 62 | |
| 20260508232306 | 21 | 257 | 12.9 | 24.1 | 0.00 | 0.00 | 0.00 | 63 | |
| 20260508232100 | 21 | 279 | 16.1 | 24.1 | 0.00 | 0.00 | 0.00 | 63 | |
| 20260508231858 | 21 | 270 | 14.5 | 24.1 | 0.00 | 0.00 | 0.00 | 63 | |
| 20260508231657 | 21 | 279 | 12.9 | 22.5 | 0.00 | 0.00 | 0.00 | 63 | |
| 20260508231455 | 21 | 262 | 14.5 | 22.5 | 0.00 | 0.00 | 0.00 | 63 | |
| 20260508231252 | 21 | 268 | 14.5 | 22.5 | 0.00 | 0.00 | 0.00 | 63 | |
| 20260508230849 | 21 | 296 | 9.7 | 22.5 | 0.00 | 0.00 | 0.00 | 62 | |
| 20260508230444 | 22 | 272 | 17.7 | 17.7 | 0.00 | 0.00 | 0.00 | 60 | |
| 20260508230242 | 22 | 279 | 6.4 | 19.3 | 0.00 | 0.00 | 0.00 | 61 | |
| 20260508230040 | 22 | 284 | 11.3 | 19.3 | 0.00 | 0.00 | 0.00 | 60 | |
| 20260508225435 | 22 | 239 | 14.5 | 17.7 | 0.00 | 0.00 | 0.00 | 61 | |
| 20260508225233 | 22 | 262 | 12.9 | 17.7 | 0.00 | 0.00 | 0.00 | 60 | |
| 20260508224828 | 22 | 264 | 16.1 | 17.7 | 0.00 | 0.00 | 0.00 | 61 | |
| 20260508224627 | 22 | 241 | 11.3 | 20.9 | 0.00 | 0.00 | 0.00 | 61 | |
| 20260508224021 | 21 | 272 | 14.5 | 24.1 | 0.00 | 0.00 | 0.00 | 61 | |
| 20260508223819 | 22 | 264 | 12.9 | 16.1 | 0.00 | 0.00 | 0.00 | 61 | |
| 20260508223616 | 22 | 255 | 16.1 | 16.1 | 0.00 | 0.00 | 0.00 | 60 | |
| 20260508223414 | 22 | 271 | 12.9 | 16.1 | 0.00 | 0.00 | 0.00 | 59 | |
| 20260508222203 | 22 | 260 | 16.1 | 19.3 | 0.00 | 0.00 | 0.00 | 60 | |
| 20260508221355 | 23 | 264 | 9.7 | 19.3 | 0.00 | 0.00 | 0.00 | 59 | |
| 20260508220952 | 22 | 182 | 6.4 | 17.7 | 0.00 | 0.00 | 0.00 | 59 | |
| 20260508220547 | 22 | 264 | 3.2 | 20.9 | 0.00 | 0.00 | 0.00 | 62 | |
| 20260508220345 | 22 | 247 | 4.8 | 20.9 | 0.00 | 0.00 | 0.00 | 61 | |
| 20260508220144 | 22 | 261 | 14.5 | 19.3 | 0.00 | 0.00 | 0.00 | 61 | |
| 20260508215941 | 22 | 255 | 9.7 | 19.3 | 0.00 | 0.00 | 0.00 | 60 | |
| 20260508215740 | 22 | 250 | 8.0 | 22.5 | 0.00 | 0.00 | 0.00 | 61 | |
| 20260508215538 | 22 | 247 | 6.4 | 22.5 | 0.00 | 0.00 | 0.00 | 62 | |
| 20260508215335 | 22 | 268 | 17.7 | 22.5 | 0.00 | 0.00 | 0.00 | 62 | |
| 20260508214931 | 22 | 260 | 16.1 | 25.7 | 0.00 | 0.00 | 0.00 | 61 | |
| 20260508214730 | 22 | 267 | 19.3 | 17.7 | 0.00 | 0.00 | 0.00 | 60 | |
| 20260508214528 | 22 | 257 | 8.0 | 17.7 | 0.00 | 0.00 | 0.00 | 59 | |
| 20260508214326 | 22 | 279 | 6.4 | 17.7 | 0.00 | 0.00 | 0.00 | 60 | |
| 20260508213922 | 22 | 282 | 14.5 | 19.3 | 0.00 | 0.00 | 0.00 | 61 | |
| 20260508213720 | 22 | 272 | 6.4 | 22.5 | 0.00 | 0.00 | 0.00 | 62 | |
| 20260508213518 | 22 | 264 | 17.7 | 22.5 | 0.00 | 0.00 | 0.00 | 61 | |
| 20260508213318 | 22 | 272 | 6.4 | 17.7 | 0.00 | 0.00 | 0.00 | 61 | |
| 20260508213114 | 22 | 274 | 3.2 | 17.7 | 0.00 | 0.00 | 0.00 | 61 | |
| 20260508212912 | 22 | 270 | 12.9 | 17.7 | 0.00 | 0.00 | 0.00 | 62 | |
| 20260508212710 | 22 | 270 | 14.5 | 20.9 | 0.00 | 0.00 | 0.00 | 61 | |
| 20260508212508 | 22 | 265 | 14.5 | 20.9 | 0.00 | 0.00 | 0.00 | 61 | |
| 20260508212306 | 22 | 267 | 3.2 | 20.9 | 0.00 | 0.00 | 0.00 | 62 | |
| 20260508211700 | 22 | 262 | 12.9 | 27.4 | 0.00 | 0.00 | 0.00 | 61 | |
| 20260508211256 | 22 | 265 | 11.3 | 24.1 | 0.00 | 0.00 | 0.00 | 63 | |
| 20260508211055 | 22 | 274 | 14.5 | 24.1 | 0.00 | 0.00 | 0.00 | 62 | |
| 20260508210651 | 22 | 274 | 12.9 | 24.1 | 0.00 | 0.00 | 0.00 | 62 | |
| 20260508210247 | 22 | 260 | 14.5 | 22.5 | 0.00 | 0.00 | 0.00 | 63 | |
| 20260508210045 | 22 | 271 | 12.9 | 22.5 | 0.00 | 0.00 | 0.00 | 62 | |
| 20260508205843 | 22 | 268 | 16.1 | 22.5 | 0.00 | 0.00 | 0.00 | 62 | |
| 20260508205640 | 22 | 275 | 11.3 | 20.9 | 0.00 | 0.00 | 0.00 | 61 | |
| 20260508204833 | 22 | 243 | 12.9 | 27.4 | 0.00 | 0.00 | 0.00 | 61 | |
| 20260508204631 | 22 | 253 | 14.5 | 24.1 | 0.00 | 0.00 | 0.00 | 62 | |
| 20260508204429 | 22 | 277 | 24.1 | 24.1 | 0.00 | 0.00 | 0.00 | 60 | |
| 20260508204227 | 22 | 296 | 4.8 | 22.5 | 0.00 | 0.00 | 0.00 | 61 | |
| 20260508204025 | 22 | 286 | 6.4 | 22.5 | 0.00 | 0.00 | 0.00 | 60 | |
| 20260508203823 | 22 | 275 | 12.9 | 22.5 | 0.00 | 0.00 | 0.00 | 61 | |
| 20260508203621 | 22 | 254 | 20.9 | 19.3 | 0.00 | 0.00 | 0.00 | 60 | |
| 20260508203217 | 22 | 260 | 12.9 | 19.3 | 0.00 | 0.00 | 0.00 | 59 | |
| 20260508202813 | 22 | 291 | 8.0 | 24.1 | 0.00 | 0.00 | 0.00 | 59 | |
| 20260508202611 | 22 | 358 | 4.8 | 24.1 | 0.00 | 0.00 | 0.00 | 60 | |
| 20260508202409 | 22 | 244 | 6.4 | 24.1 | 0.00 | 0.00 | 0.00 | 60 | |
| 20260508202207 | 22 | 275 | 14.5 | 20.9 | 0.00 | 0.00 | 0.00 | 62 | |
| 20260508201400 | 21 | 229 | 6.4 | 22.5 | 0.00 | 0.00 | 0.00 | 63 | |
| 20260508201157 | 21 | 275 | 12.9 | 20.9 | 0.00 | 0.00 | 0.00 | 62 | |
| 20260508200956 | 21 | 278 | 11.3 | 20.9 | 0.00 | 0.00 | 0.00 | 63 | |
| 20260508200754 | 21 | 261 | 8.0 | 22.5 | 0.00 | 0.00 | 0.00 | 63 | |
| 20260508200552 | 21 | 262 | 11.3 | 22.5 | 0.00 | 0.00 | 0.00 | 63 | |
| 20260508200350 | 21 | 257 | 6.4 | 22.5 | 0.00 | 0.00 | 0.00 | 63 | |
| 20260508200148 | 21 | 289 | 12.9 | 20.9 | 0.00 | 0.00 | 0.00 | 63 | |
| 20260508195945 | 21 | 271 | 14.5 | 20.9 | 0.00 | 0.00 | 0.00 | 62 | |
| 20260508195744 | 21 | 253 | 14.5 | 20.9 | 0.00 | 0.00 | 0.00 | 64 | |
| 20260508195341 | 21 | 277 | 12.9 | 20.9 | 0.00 | 0.00 | 0.00 | 64 | |
| 20260508195138 | 21 | 257 | 12.9 | 20.9 | 0.00 | 0.00 | 0.00 | 67 | |
| 20260508194734 | 20 | 265 | 14.5 | 20.9 | 0.00 | 0.00 | 0.00 | 65 | |
| 20260508194533 | 21 | 251 | 19.3 | 20.9 | 0.00 | 0.00 | 0.00 | 63 | |
| 20260508194331 | 20 | 289 | 9.7 | 20.9 | 0.00 | 0.00 | 0.00 | 65 | |
| 20260508194128 | 21 | 254 | 9.7 | 19.3 | 0.00 | 0.00 | 0.00 | 65 | |
| 20260508193927 | 21 | 265 | 9.7 | 19.3 | 0.00 | 0.00 | 0.00 | 64 | |
| 20260508193724 | 21 | 264 | 3.2 | 20.9 | 0.00 | 0.00 | 0.00 | 64 | |
| 20260508193522 | 21 | 270 | 8.0 | 20.9 | 0.00 | 0.00 | 0.00 | 67 | |
| 20260508193320 | 20 | 284 | 12.9 | 20.9 | 0.00 | 0.00 | 0.00 | 66 | |
| 20260508193119 | 20 | 277 | 8.0 | 17.7 | 0.00 | 0.00 | 0.00 | 68 | |
| 20260508192916 | 20 | 271 | 14.5 | 17.7 | 0.00 | 0.00 | 0.00 | 66 | |
| 20260508192714 | 20 | 270 | 12.9 | 16.1 | 0.00 | 0.00 | 0.00 | 65 | |
| 20260508191907 | 20 | 284 | 8.0 | 17.7 | 0.00 | 0.00 | 0.00 | 67 | |
| 20260508191705 | 20 | 239 | 11.3 | 17.7 | 0.00 | 0.00 | 0.00 | 67 | |
| 20260508191301 | 20 | 278 | 12.9 | 17.7 | 0.00 | 0.00 | 0.00 | 68 | |
| 20260508191059 | 20 | 292 | 11.3 | 17.7 | 0.00 | 0.00 | 0.00 | 68 | |
| 20260508190858 | 20 | 277 | 11.3 | 17.7 | 0.00 | 0.00 | 0.00 | 68 | |
| 20260508190655 | 20 | 278 | 3.2 | 16.1 | 0.00 | 0.00 | 0.00 | 69 | |
| 20260508190454 | 20 | 288 | 8.0 | 16.1 | 0.00 | 0.00 | 0.00 | 69 | |
| 20260508190252 | 20 | 271 | 9.7 | 16.1 | 0.00 | 0.00 | 0.00 | 70 | |
| 20260508190051 | 19 | 267 | 6.4 | 16.1 | 0.00 | 0.00 | 0.00 | 71 | |
| 20260508185848 | 19 | 272 | 11.3 | 16.1 | 0.00 | 0.00 | 0.00 | 70 | |
| 20260508185646 | 19 | 298 | 6.4 | 19.3 | 0.00 | 0.00 | 0.00 | 70 | |
| 20260508185242 | 19 | 258 | 11.3 | 19.3 | 0.00 | 0.00 | 0.00 | 72 | |
| 20260508185040 | 19 | 277 | 9.7 | 19.3 | 0.00 | 0.00 | 0.00 | 71 | |
| 20260508184838 | 19 | 270 | 8.0 | 19.3 | 0.00 | 0.00 | 0.00 | 72 | |
| 20260508184637 | 19 | 261 | 4.8 | 17.7 | 0.00 | 0.00 | 0.00 | 72 | |
| 20260508184233 | 19 | 288 | 1.6 | 16.1 | 0.00 | 0.00 | 0.00 | 72 | |
| 20260508183627 | 18 | 278 | 8.0 | 16.1 | 0.00 | 0.00 | 0.00 | 73 | |
| 20260508183425 | 18 | 270 | 14.5 | 16.1 | 0.00 | 0.00 | 0.00 | 73 | |
| 20260508183221 | 18 | 270 | 16.1 | 16.1 | 0.00 | 0.00 | 0.00 | 73 | |
| 20260508183022 | 18 | 265 | 14.5 | 16.1 | 0.00 | 0.00 | 0.00 | 73 | |
| 20260508182820 | 18 | 264 | 9.7 | 19.3 | 0.00 | 0.00 | 0.00 | 74 | |
| 20260508182618 | 18 | 241 | 14.5 | 19.3 | 0.00 | 0.00 | 0.00 | 75 | |
| 20260508182414 | 18 | 270 | 11.3 | 19.3 | 0.00 | 0.00 | 0.00 | 75 | |
| 20260508182214 | 18 | 248 | 11.3 | 17.7 | 0.00 | 0.00 | 0.00 | 76 | |
| 20260508182012 | 18 | 291 | 12.9 | 17.7 | 0.00 | 0.00 | 0.00 | 76 | |
| 20260508181810 | 18 | 272 | 14.5 | 17.7 | 0.00 | 0.00 | 0.00 | 76 | |
| 20260508181608 | 17 | 298 | 9.7 | 17.7 | 0.00 | 0.00 | 0.00 | 77 | |
| 20260508181406 | 17 | 292 | 9.7 | 17.7 | 0.00 | 0.00 | 0.00 | 76 | |
| 20260508181205 | 17 | 270 | 11.3 | 17.7 | 0.00 | 0.00 | 0.00 | 77 | |
| 20260508181003 | 17 | 268 | 8.0 | 17.7 | 0.00 | 0.00 | 0.00 | 77 | |
| 20260508180801 | 17 | 255 | 17.7 | 17.7 | 0.00 | 0.00 | 0.00 | 78 | |
| 20260508180559 | 17 | 285 | 12.9 | 17.7 | 0.00 | 0.00 | 0.00 | 78 | |
| 20260508180155 | 17 | 271 | 16.1 | 19.3 | 0.00 | 0.00 | 0.00 | 78 | |
| 20260508175953 | 17 | 302 | 6.4 | 19.3 | 0.00 | 0.00 | 0.00 | 78 | |
| 20260508175749 | 17 | 270 | 9.7 | 16.1 | 0.00 | 0.00 | 0.00 | 78 | |
| 20260508175550 | 17 | 258 | 14.5 | 16.1 | 0.00 | 0.00 | 0.00 | 80 | |
| 20260508175347 | 16 | 264 | 12.9 | 16.1 | 0.00 | 0.00 | 0.00 | 79 | |
| 20260508175145 | 17 | 262 | 9.7 | 19.3 | 0.00 | 0.00 | 0.00 | 80 | |
| 20260508174944 | 16 | 268 | 14.5 | 19.3 | 0.00 | 0.00 | 0.00 | 80 | |
| 20260508174742 | 16 | 268 | 14.5 | 19.3 | 0.00 | 0.00 | 0.00 | 79 | |
| 20260508174339 | 17 | 291 | 14.5 | 19.3 | 0.00 | 0.00 | 0.00 | 79 | |
| 20260508174138 | 17 | 289 | 11.3 | 20.9 | 0.00 | 0.00 | 0.00 | 79 | |
| 20260508173934 | 16 | 285 | 11.3 | 20.9 | 0.00 | 0.00 | 0.00 | 80 | |
| 20260508173127 | 16 | 282 | 16.1 | 16.1 | 0.00 | 0.00 | 0.00 | 81 | |
| 20260508172925 | 16 | 270 | 11.3 | 16.1 | 0.00 | 0.00 | 0.00 | 82 | |
| 20260508172723 | 16 | 279 | 11.3 | 12.9 | 0.00 | 0.00 | 0.00 | 81 | |
| 20260508172519 | 16 | 264 | 11.3 | 12.9 | 0.00 | 0.00 | 0.00 | 81 | |
| 20260508172318 | 16 | 293 | 11.3 | 12.9 | 0.00 | 0.00 | 0.00 | 82 | |
| 20260508172117 | 16 | 180 | 0.0 | 12.9 | 0.00 | 0.00 | 0.00 | 83 | |
| 20260508171915 | 16 | 291 | 11.3 | 12.9 | 0.00 | 0.00 | 0.00 | 83 | |
| 20260508171512 | 16 | 254 | 9.7 | 16.1 | 0.00 | 0.00 | 0.00 | 85 | |
| 20260508171310 | 16 | 281 | 11.3 | 16.1 | 0.00 | 0.00 | 0.00 | 83 | |
| 20260508171108 | 16 | 285 | 6.4 | 16.1 | 0.00 | 0.00 | 0.00 | 83 | |
| 20260508170906 | 16 | 289 | 11.3 | 16.1 | 0.00 | 0.00 | 0.00 | 84 | |
| 20260508170704 | 16 | 264 | 11.3 | 16.1 | 0.00 | 0.00 | 0.00 | 86 | |
| 20260508170502 | 15 | 278 | 12.9 | 16.1 | 0.00 | 0.00 | 0.00 | 87 | |
| 20260508170300 | 15 | 302 | 9.7 | 17.7 | 0.00 | 0.00 | 0.00 | 86 | |
| 20260508170058 | 15 | 279 | 14.5 | 17.7 | 0.00 | 0.00 | 0.00 | 86 | |
| 20260508165856 | 15 | 279 | 14.5 | 17.7 | 0.00 | 0.00 | 0.00 | 87 | |
| 20260508165654 | 15 | 300 | 6.4 | 16.1 | 0.00 | 0.00 | 0.00 | 87 | |
| 20260508165451 | 15 | 277 | 14.5 | 16.1 | 0.00 | 0.00 | 0.00 | 87 | |
| 20260508165250 | 15 | 316 | 6.4 | 12.9 | 0.00 | 0.00 | 0.00 | 86 | |
| 20260508165049 | 15 | 291 | 9.7 | 12.9 | 0.00 | 0.00 | 0.00 | 85 | |
| 20260508164847 | 15 | 274 | 6.4 | 12.9 | 0.00 | 0.00 | 0.00 | 86 | |
| 20260508164645 | 15 | 264 | 8.0 | 12.9 | 0.00 | 0.00 | 0.00 | 88 | |
| 20260508164442 | 15 | 315 | 3.2 | 12.9 | 0.00 | 0.00 | 0.00 | 87 | |
| 20260508164241 | 15 | 265 | 1.6 | 12.9 | 0.00 | 0.00 | 0.00 | 88 | |
| 20260508163837 | 15 | 292 | 8.0 | 12.9 | 0.00 | 0.00 | 0.00 | 89 | |
| 20260508163635 | 15 | 181 | 0.0 | 12.9 | 0.00 | 0.00 | 0.00 | 89 | |
| 20260508163434 | 15 | 243 | 1.6 | 12.9 | 0.00 | 0.00 | 0.00 | 90 | |
| 20260508163231 | 15 | 275 | 8.0 | 12.9 | 0.00 | 0.00 | 0.00 | 90 | |
| 20260508163030 | 14 | 305 | 8.0 | 12.9 | 0.00 | 0.00 | 0.00 | 90 | |
| 20260508162828 | 14 | 284 | 8.0 | 12.9 | 0.00 | 0.00 | 0.00 | 90 | |
| 20260508162422 | 14 | 286 | 9.7 | 14.5 | 0.00 | 0.00 | 0.00 | 91 | |
| 20260508162220 | 14 | 296 | 8.0 | 11.3 | 0.00 | 0.00 | 0.00 | 90 | |
| 20260508162020 | 14 | 281 | 3.2 | 11.3 | 0.00 | 0.00 | 0.00 | 91 | |
| 20260508161818 | 14 | 264 | 8.0 | 11.3 | 0.00 | 0.00 | 0.00 | 91 | |
| 20260508161617 | 14 | 282 | 6.4 | 11.3 | 0.00 | 0.00 | 0.00 | 91 | |
| 20260508161414 | 14 | 275 | 6.4 | 11.3 | 0.00 | 0.00 | 0.00 | 91 | |
| 20260508161010 | 14 | 289 | 4.8 | 4.8 | 0.00 | 0.00 | 0.00 | 93 | |
| 20260508160606 | 14 | 277 | 3.2 | 6.4 | 0.00 | 0.00 | 0.00 | 93 | |
| 20260508160405 | 14 | 270 | 0.0 | 6.4 | 0.00 | 0.00 | 0.00 | 93 | |
| 20260508160201 | 14 | 289 | 0.0 | 8.0 | 0.00 | 0.00 | 0.00 | 93 | |
| 20260508160001 | 14 | 285 | 3.2 | 8.0 | 0.00 | 0.00 | 0.00 | 93 | |
| 20260508155757 | 14 | 296 | 3.2 | 9.7 | 0.00 | 0.00 | 0.00 | 93 | |
| 20260508155154 | 14 | 272 | 3.2 | 6.4 | 0.00 | 0.00 | 0.00 | 94 | |
| 20260508154951 | 14 | 264 | 4.8 | 6.4 | 0.00 | 0.00 | 0.00 | 94 | |
| 20260508154750 | 13 | 201 | 0.0 | 3.2 | 0.00 | 0.00 | 0.00 | 95 | |
| 20260508154547 | 13 | 178 | 1.6 | 3.2 | 0.00 | 0.00 | 0.00 | 95 | |
| 20260508154344 | 13 | 298 | 0.0 | 3.2 | 0.00 | 0.00 | 0.00 | 94 | |
| 20260508154143 | 13 | 309 | 1.6 | 6.4 | 0.00 | 0.00 | 0.00 | 95 | |
| 20260508153942 | 13 | 281 | 0.0 | 6.4 | 0.00 | 0.00 | 0.00 | 95 | |
| 20260508153740 | 13 | 281 | 0.0 | 4.8 | 0.00 | 0.00 | 0.00 | 95 | |
| 20260508153538 | 13 | 281 | 0.0 | 4.8 | 0.00 | 0.00 | 0.00 | 95 | |
| 20260508153134 | 13 | 243 | 0.0 | 3.2 | 0.00 | 0.00 | 0.00 | 95 | |
| 20260508152933 | 13 | 285 | 1.6 | 3.2 | 0.00 | 0.00 | 0.00 | 95 | |
| 20260508152730 | 13 | 300 | 1.6 | 3.2 | 0.00 | 0.00 | 0.00 | 95 | |
| 20260508152527 | 13 | 302 | 1.6 | 3.2 | 0.00 | 0.00 | 0.00 | 95 | |
| 20260508152327 | 13 | 293 | 1.6 | 3.2 | 0.00 | 0.00 | 0.00 | 95 | |
| 20260508152125 | 13 | 274 | 0.0 | 4.8 | 0.00 | 0.00 | 0.00 | 95 | |
| 20260508151720 | 13 | 240 | 0.0 | 6.4 | 0.00 | 0.00 | 0.00 | 95 | |
| 20260508151116 | 13 | 295 | 3.2 | 4.8 | 0.00 | 0.00 | 0.00 | 95 | |
| 20260508150913 | 13 | 251 | 0.0 | 4.8 | 0.00 | 0.00 | 0.00 | 95 | |
| 20260508150712 | 13 | 271 | 3.2 | 6.4 | 0.00 | 0.00 | 0.00 | 95 | |
| 20260508150510 | 13 | 241 | 0.0 | 6.4 | 0.00 | 0.00 | 0.00 | 95 | |
| 20260508150308 | 13 | 278 | 4.8 | 0.0 | 0.00 | 0.00 | 0.00 | 95 | |
| 20260508150106 | 13 | 284 | 4.8 | 0.0 | 0.00 | 0.00 | 0.00 | 95 | |
| 20260508145904 | 13 | 262 | 0.0 | 0.0 | 0.00 | 0.00 | 0.00 | 95 | |
| 20260508145702 | 13 | 262 | 0.0 | 0.0 | 0.00 | 0.00 | 0.00 | 95 | |
| 20260508145500 | 13 | 262 | 0.0 | 0.0 | 0.00 | 0.00 | 0.00 | 95 | |
| 20260508145259 | 13 | 262 | 0.0 | 0.0 | 0.00 | 0.00 | 0.00 | 95 | |
| 20260508145056 | 12 | 262 | 0.0 | 0.0 | 0.00 | 0.00 | 0.00 | 95 | |
| 20260508144653 | 12 | 262 | 0.0 | 0.0 | 0.00 | 0.00 | 0.00 | 95 | |
| 20260508144450 | 12 | 262 | 0.0 | 0.0 | 0.00 | 0.00 | 0.00 | 95 | |
| 20260508144248 | 12 | 262 | 0.0 | 0.0 | 0.00 | 0.00 | 0.00 | 95 | |
| 20260508144047 | 12 | 262 | 0.0 | 0.0 | 0.00 | 0.00 | 0.00 | 94 | |
| 20260508143643 | 12 | 262 | 0.0 | 1.6 | 0.00 | 0.00 | 0.00 | 93 | |
| 20260508143240 | 13 | 262 | 0.0 | 0.0 | 0.00 | 0.00 | 0.00 | 94 | |
| 20260508143037 | 13 | 305 | 0.0 | 0.0 | 0.00 | 0.00 | 0.00 | 95 | |
| 20260508142836 | 13 | 305 | 0.0 | 0.0 | 0.00 | 0.00 | 0.00 | 95 | |
| 20260508142634 | 12 | 305 | 0.0 | 0.0 | 0.00 | 0.00 | 0.00 | 95 | |
| 20260508142432 | 12 | 305 | 0.0 | 0.0 | 0.00 | 0.00 | 0.00 | 95 | |
| 20260508142028 | 12 | 305 | 0.0 | 0.0 | 0.00 | 0.00 | 0.00 | 95 | |
| 20260508141826 | 12 | 305 | 0.0 | 0.0 | 0.00 | 0.00 | 0.00 | 95 | |
| 20260508141624 | 12 | 305 | 0.0 | 0.0 | 0.00 | 0.00 | 0.00 | 95 | |
| 20260508141422 | 12 | 305 | 0.0 | 0.0 | 0.00 | 0.00 | 0.00 | 95 | |
| 20260508141219 | 12 | 305 | 0.0 | 0.0 | 0.00 | 0.00 | 0.00 | 95 | |
| 20260508141018 | 12 | 305 | 0.0 | 0.0 | 0.00 | 0.00 | 0.00 | 95 | |
| 20260508140816 | 12 | 305 | 0.0 | 0.0 | 0.00 | 0.00 | 0.00 | 95 | |
| 20260508140614 | 12 | 305 | 0.0 | 0.0 | 0.00 | 0.00 | 0.00 | 95 | |
| 20260508140412 | 12 | 305 | 0.0 | 0.0 | 0.00 | 0.00 | 0.00 | 95 | |
| 20260508140210 | 12 | 305 | 0.0 | 0.0 | 0.00 | 0.00 | 0.00 | 95 | |
| 20260508140007 | 11 | 305 | 0.0 | 0.0 | 0.00 | 0.00 | 0.00 | 95 | |
| 20260508135807 | 11 | 305 | 0.0 | 0.0 | 0.00 | 0.00 | 0.00 | 95 | |
| 20260508135605 | 11 | 305 | 0.0 | 0.0 | 0.00 | 0.00 | 0.00 | 95 | |
| 20260508135403 | 11 | 305 | 0.0 | 0.0 | 0.00 | 0.00 | 0.00 | 95 | |
| 20260508135201 | 11 | 305 | 0.0 | 0.0 | 0.00 | 0.00 | 0.00 | 95 | |
| 20260508134959 | 11 | 305 | 0.0 | 0.0 | 0.00 | 0.00 | 0.00 | 95 | |
| 20260508134757 | 11 | 305 | 0.0 | 0.0 | 0.00 | 0.00 | 0.00 | 94 | |
| 20260508134555 | 11 | 305 | 0.0 | 0.0 | 0.00 | 0.00 | 0.00 | 94 | |
| 20260508134354 | 11 | 305 | 0.0 | 0.0 | 0.00 | 0.00 | 0.00 | 94 | |
| 20260508134152 | 11 | 305 | 0.0 | 0.0 | 0.00 | 0.00 | 0.00 | 94 | |
| 20260508133748 | 11 | 305 | 0.0 | 0.0 | 0.00 | 0.00 | 0.00 | 95 | |
| 20260508133545 | 11 | 305 | 0.0 | 0.0 | 0.00 | 0.00 | 0.00 | 95 | |
| 20260508133344 | 11 | 305 | 0.0 | 0.0 | 0.00 | 0.00 | 0.00 | 95 | |
| 20260508133142 | 11 | 305 | 0.0 | 0.0 | 0.00 | 0.00 | 0.00 | 95 | |
| 20260508132940 | 11 | 305 | 0.0 | 0.0 | 0.00 | 0.00 | 0.00 | 95 | |
| 20260508132738 | 11 | 305 | 0.0 | 0.0 | 0.00 | 0.00 | 0.00 | 95 | |
| 20260508132536 | 11 | 305 | 0.0 | 0.0 | 0.00 | 0.00 | 0.00 | 94 | |
| 20260508132334 | 11 | 305 | 0.0 | 0.0 | 0.00 | 0.00 | 0.00 | 94 | |
| 20260508132131 | 11 | 305 | 0.0 | 0.0 | 0.00 | 0.00 | 0.00 | 94 | |
| 20260508131729 | 11 | 305 | 0.0 | 0.0 | 0.00 | 0.00 | 0.00 | 94 | |
| 20260508131526 | 11 | 305 | 0.0 | 0.0 | 0.00 | 0.00 | 0.00 | 95 | |
| 20260508131327 | 11 | 305 | 0.0 | 0.0 | 0.00 | 0.00 | 0.00 | 94 | |
| 20260508131325 | 11 | 305 | 0.0 | 0.0 | 0.00 | 0.00 | 0.00 | 95 | |
| 20260508131123 | 11 | 305 | 0.0 | 0.0 | 0.00 | 0.00 | 0.00 | 94 | |
| 20260508130921 | 11 | 305 | 0.0 | 0.0 | 0.00 | 0.00 | 0.00 | 94 | |
| 20260508130719 | 11 | 305 | 0.0 | 0.0 | 0.00 | 0.00 | 0.00 | 94 | |
| 20260508130517 | 11 | 305 | 0.0 | 0.0 | 0.00 | 0.00 | 0.00 | 94 | |
| 20260508130316 | 11 | 305 | 0.0 | 0.0 | 0.00 | 0.00 | 0.00 | 94 | |
| 20260508125911 | 11 | 305 | 0.0 | 0.0 | 0.00 | 0.00 | 0.00 | 94 | |
| 20260508125708 | 11 | 305 | 0.0 | 0.0 | 0.00 | 0.00 | 0.00 | 94 | |
| 20260508125508 | 11 | 305 | 0.0 | 0.0 | 0.00 | 0.00 | 0.00 | 94 | |
| 20260508124902 | 11 | 305 | 0.0 | 0.0 | 0.00 | 0.00 | 0.00 | 94 | |
| 20260508124700 | 11 | 305 | 0.0 | 0.0 | 0.00 | 0.00 | 0.00 | 94 | |
| 20260508124458 | 11 | 305 | 0.0 | 0.0 | 0.00 | 0.00 | 0.00 | 94 | |
| 20260508124256 | 11 | 305 | 0.0 | 0.0 | 0.00 | 0.00 | 0.00 | 94 | |
| 20260508124208 | 11 | 305 | 0.0 | 0.0 | 0.00 | 0.00 | 0.00 | 94 | |
| 20260508124055 | 11 | 305 | 0.0 | 0.0 | 0.00 | 0.00 | 0.00 | 94 | |
| 20260508123852 | 11 | 305 | 0.0 | 0.0 | 0.00 | 0.00 | 0.00 | 94 | |
| 20260508123651 | 11 | 305 | 0.0 | 0.0 | 0.00 | 0.00 | 0.00 | 94 | |
| 20260508123449 | 11 | 305 | 0.0 | 0.0 | 0.00 | 0.00 | 0.00 | 94 | |
| 20260508123247 | 11 | 305 | 0.0 | 0.0 | 0.00 | 0.00 | 0.00 | 94 | |
| 20260508123045 | 11 | 305 | 0.0 | 0.0 | 0.00 | 0.00 | 0.00 | 94 | |
| 20260508122641 | 11 | 305 | 0.0 | 0.0 | 0.00 | 0.00 | 0.00 | 94 | |
| 20260508122237 | 12 | 305 | 0.0 | 0.0 | 0.00 | 0.00 | 0.00 | 94 | |
| 20260508122036 | 11 | 305 | 0.0 | 0.0 | 0.00 | 0.00 | 0.00 | 94 | |
| 20260508121834 | 11 | 305 | 0.0 | 0.0 | 0.00 | 0.00 | 0.00 | 94 | |
| 20260508121632 | 11 | 305 | 0.0 | 0.0 | 0.00 | 0.00 | 0.00 | 94 | |
| 20260508121430 | 11 | 305 | 0.0 | 0.0 | 0.00 | 0.00 | 0.00 | 94 | |
| 20260508121228 | 11 | 305 | 0.0 | 0.0 | 0.00 | 0.00 | 0.00 | 94 | |
| 20260508121026 | 11 | 305 | 0.0 | 0.0 | 0.00 | 0.00 | 0.00 | 94 | |
| 20260508120824 | 11 | 305 | 0.0 | 0.0 | 0.00 | 0.00 | 0.00 | 94 | |
| 20260508120622 | 11 | 305 | 0.0 | 0.0 | 0.00 | 0.00 | 0.00 | 94 | |
| 20260508120420 | 11 | 305 | 0.0 | 0.0 | 0.00 | 0.00 | 0.00 | 94 | |
| 20260508120218 | 11 | 305 | 0.0 | 0.0 | 0.00 | 0.00 | 0.00 | 94 | |
| 20260508120015 | 11 | 305 | 0.0 | 0.0 | 0.00 | 0.00 | 0.00 | 94 | |
| 20260508115814 | 11 | 305 | 0.0 | 0.0 | 0.00 | 0.00 | 0.00 | 94 | |
| 20260508115613 | 11 | 305 | 0.0 | 0.0 | 0.00 | 0.00 | 0.00 | 94 | |
| 20260508115410 | 11 | 305 | 0.0 | 0.0 | 0.00 | 0.00 | 0.00 | 94 | |
| 20260508115208 | 11 | 305 | 0.0 | 0.0 | 0.00 | 0.00 | 0.00 | 93 | |
| 20260508115007 | 11 | 305 | 0.0 | 0.0 | 0.00 | 0.00 | 0.00 | 93 | |
| 20260508114805 | 12 | 305 | 0.0 | 0.0 | 0.00 | 0.00 | 0.00 | 93 | |
| 20260508114603 | 12 | 305 | 0.0 | 0.0 | 0.00 | 0.00 | 0.00 | 93 | |
| 20260508114401 | 12 | 305 | 0.0 | 0.0 | 0.00 | 0.00 | 0.00 | 93 | |
| 20260508114159 | 12 | 305 | 0.0 | 0.0 | 0.00 | 0.00 | 0.00 | 93 | |
| 20260508113957 | 12 | 305 | 0.0 | 0.0 | 0.00 | 0.00 | 0.00 | 93 | |
| 20260508113553 | 12 | 305 | 0.0 | 0.0 | 0.00 | 0.00 | 0.00 | 93 | |
| 20260508113355 | 12 | 305 | 0.0 | 0.0 | 0.00 | 0.00 | 0.00 | 93 | |
| 20260508113149 | 12 | 305 | 0.0 | 0.0 | 0.00 | 0.00 | 0.00 | 93 | |
| 20260508112948 | 12 | 305 | 0.0 | 0.0 | 0.00 | 0.00 | 0.00 | 93 | |
| 20260508112746 | 12 | 305 | 0.0 | 0.0 | 0.00 | 0.00 | 0.00 | 93 | |
| 20260508112544 | 12 | 305 | 0.0 | 0.0 | 0.00 | 0.00 | 0.00 | 93 | |
| 20260508112342 | 12 | 305 | 0.0 | 0.0 | 0.00 | 0.00 | 0.00 | 93 | |
| 20260508112140 | 12 | 305 | 0.0 | 0.0 | 0.00 | 0.00 | 0.00 | 93 | |
| 20260508111736 | 12 | 305 | 0.0 | 0.0 | 0.00 | 0.00 | 0.00 | 93 | |
| 20260508111332 | 12 | 305 | 0.0 | 0.0 | 0.00 | 0.00 | 0.00 | 93 | |
| 20260508111131 | 12 | 305 | 0.0 | 0.0 | 0.00 | 0.00 | 0.00 | 93 | |
| 20260508110929 | 12 | 305 | 0.0 | 0.0 | 0.00 | 0.00 | 0.00 | 93 | |
| 20260508110727 | 12 | 305 | 0.0 | 0.0 | 0.00 | 0.00 | 0.00 | 93 | |
| 20260508110524 | 12 | 305 | 0.0 | 0.0 | 0.00 | 0.00 | 0.00 | 93 | |
| 20260508110323 | 12 | 305 | 0.0 | 0.0 | 0.00 | 0.00 | 0.00 | 93 | |
| 20260508110121 | 12 | 305 | 0.0 | 0.0 | 0.00 | 0.00 | 0.00 | 93 | |
| 20260508105919 | 12 | 305 | 0.0 | 0.0 | 0.00 | 0.00 | 0.00 | 92 | |
| 20260508105719 | 12 | 305 | 0.0 | 0.0 | 0.00 | 0.00 | 0.00 | 92 | |
| 20260508105515 | 12 | 305 | 0.0 | 0.0 | 0.00 | 0.00 | 0.00 | 92 | |
| 20260508105112 | 12 | 305 | 0.0 | 0.0 | 0.00 | 0.00 | 0.00 | 92 | |
| 20260508104910 | 12 | 305 | 0.0 | 0.0 | 0.00 | 0.00 | 0.00 | 92 | |
| 20260508104709 | 12 | 305 | 0.0 | 0.0 | 0.00 | 0.00 | 0.00 | 92 | |
| 20260508104506 | 12 | 305 | 0.0 | 0.0 | 0.00 | 0.00 | 0.00 | 92 | |
| 20260508104304 | 12 | 305 | 0.0 | 0.0 | 0.00 | 0.00 | 0.00 | 92 | |
| 20260508103900 | 12 | 305 | 0.0 | 0.0 | 0.00 | 0.00 | 0.00 | 92 | |
| 20260508103658 | 12 | 305 | 0.0 | 0.0 | 0.00 | 0.00 | 0.00 | 92 | |
| 20260508103456 | 12 | 305 | 0.0 | 0.0 | 0.00 | 0.00 | 0.00 | 92 | |
| 20260508103254 | 12 | 305 | 0.0 | 0.0 | 0.00 | 0.00 | 0.00 | 92 | |
| 20260508103052 | 12 | 305 | 0.0 | 0.0 | 0.00 | 0.00 | 0.00 | 92 | |
| 20260508102850 | 12 | 305 | 0.0 | 0.0 | 0.00 | 0.00 | 0.00 | 92 | |
| 20260508102446 | 12 | 305 | 0.0 | 0.0 | 0.00 | 0.00 | 0.00 | 92 | |
| 20260508102244 | 12 | 305 | 0.0 | 0.0 | 0.00 | 0.00 | 0.00 | 92 | |
| 20260508102043 | 12 | 305 | 0.0 | 0.0 | 0.00 | 0.00 | 0.00 | 92 | |
| 20260508101841 | 12 | 305 | 0.0 | 0.0 | 0.00 | 0.00 | 0.00 | 92 | |
| 20260508101639 | 12 | 305 | 0.0 | 0.0 | 0.00 | 0.00 | 0.00 | 92 | |
| 20260508101437 | 12 | 305 | 0.0 | 0.0 | 0.00 | 0.00 | 0.00 | 92 | |
| 20260508101235 | 12 | 305 | 0.0 | 0.0 | 0.00 | 0.00 | 0.00 | 91 | |
| 20260508100428 | 12 | 305 | 0.0 | 0.0 | 0.00 | 0.00 | 0.00 | 91 | |
| 20260508100226 | 12 | 305 | 0.0 | 0.0 | 0.00 | 0.00 | 0.00 | 91 | |
| 20260508100024 | 12 | 305 | 0.0 | 0.0 | 0.00 | 0.00 | 0.00 | 91 | |
| 20260508095620 | 12 | 305 | 0.0 | 0.0 | 0.00 | 0.00 | 0.00 | 91 | |
| 20260508095419 | 12 | 305 | 0.0 | 0.0 | 0.00 | 0.00 | 0.00 | 91 | |
| 20260508095015 | 12 | 305 | 0.0 | 0.0 | 0.00 | 0.00 | 0.00 | 91 | |
| 20260508094812 | 12 | 305 | 0.0 | 0.0 | 0.00 | 0.00 | 0.00 | 91 | |
| 20260508094611 | 12 | 305 | 0.0 | 0.0 | 0.00 | 0.00 | 0.00 | 91 | |
| 20260508094409 | 12 | 305 | 0.0 | 0.0 | 0.00 | 0.00 | 0.00 | 91 | |
| 20260508093803 | 12 | 305 | 0.0 | 0.0 | 0.00 | 0.00 | 0.00 | 91 | |
| 20260508093601 | 12 | 305 | 0.0 | 0.0 | 0.00 | 0.00 | 0.00 | 91 | |
| 20260508093157 | 12 | 305 | 0.0 | 0.0 | 0.00 | 0.00 | 0.00 | 90 | |
| 20260508092955 | 12 | 305 | 0.0 | 0.0 | 0.00 | 0.00 | 0.00 | 90 | |
| 20260508092753 | 12 | 305 | 0.0 | 0.0 | 0.00 | 0.00 | 0.00 | 90 | |
| 20260508092551 | 12 | 305 | 0.0 | 0.0 | 0.00 | 0.00 | 0.00 | 90 | |
| 20260508092147 | 12 | 305 | 0.0 | 0.0 | 0.00 | 0.00 | 0.00 | 90 | |
| 20260508091542 | 13 | 305 | 0.0 | 0.0 | 0.00 | 0.00 | 0.00 | 90 | |
| 20260508091338 | 13 | 305 | 0.0 | 0.0 | 0.00 | 0.00 | 0.00 | 89 | |
| 20260508091138 | 13 | 305 | 0.0 | 0.0 | 0.00 | 0.00 | 0.00 | 90 | |
| 20260508090936 | 13 | 305 | 0.0 | 0.0 | 0.00 | 0.00 | 0.00 | 90 | |
| 20260508090734 | 13 | 305 | 0.0 | 0.0 | 0.00 | 0.00 | 0.00 | 89 | |
| 20260508090533 | 13 | 305 | 0.0 | 0.0 | 0.00 | 0.00 | 0.00 | 89 | |
| 20260508090331 | 13 | 305 | 0.0 | 0.0 | 0.00 | 0.00 | 0.00 | 89 | |
| 20260508090127 | 13 | 305 | 0.0 | 1.6 | 0.00 | 0.00 | 0.00 | 89 | |
| 20260508085927 | 13 | 305 | 0.0 | 1.6 | 0.00 | 0.00 | 0.00 | 89 | |
| 20260508085725 | 13 | 305 | 0.0 | 4.8 | 0.00 | 0.00 | 0.00 | 90 | |
| 20260508085523 | 13 | 305 | 0.0 | 4.8 | 0.00 | 0.00 | 0.00 | 90 | |
| 20260508085319 | 13 | 299 | 1.6 | 4.8 | 0.00 | 0.00 | 0.00 | 90 | |
| 20260508085119 | 13 | 265 | 0.0 | 9.7 | 0.00 | 0.00 | 0.00 | 90 | |
| 20260508084917 | 13 | 265 | 0.0 | 9.7 | 0.00 | 0.00 | 0.00 | 90 | |
| 20260508084715 | 13 | 279 | 6.4 | 0.0 | 0.00 | 0.00 | 0.00 | 90 | |
| 20260508084514 | 13 | 257 | 0.0 | 0.0 | 0.00 | 0.00 | 0.00 | 90 | |
| 20260508084311 | 13 | 257 | 0.0 | 0.0 | 0.00 | 0.00 | 0.00 | 89 | |
| 20260508084110 | 13 | 257 | 0.0 | 0.0 | 0.00 | 0.00 | 0.00 | 89 | |
| 20260508083908 | 13 | 257 | 0.0 | 0.0 | 0.00 | 0.00 | 0.00 | 89 | |
| 20260508083705 | 13 | 257 | 0.0 | 0.0 | 0.00 | 0.00 | 0.00 | 89 | |
| 20260508082900 | 13 | 257 | 0.0 | 6.4 | 0.00 | 0.00 | 0.00 | 89 | |
| 20260508082656 | 13 | 286 | 3.2 | 0.0 | 0.00 | 0.00 | 0.00 | 89 | |
| 20260508082455 | 13 | 164 | 0.0 | 0.0 | 0.00 | 0.00 | 0.00 | 89 | |
| 20260508082252 | 13 | 164 | 0.0 | 0.0 | 0.00 | 0.00 | 0.00 | 88 | |
| 20260508082051 | 13 | 164 | 0.0 | 0.0 | 0.00 | 0.00 | 0.00 | 88 | |
| 20260508081849 | 13 | 164 | 0.0 | 0.0 | 0.00 | 0.00 | 0.00 | 88 | |
| 20260508081647 | 13 | 164 | 0.0 | 0.0 | 0.00 | 0.00 | 0.00 | 88 | |
| 20260508081445 | 13 | 164 | 0.0 | 0.0 | 0.00 | 0.00 | 0.00 | 88 | |
| 20260508081243 | 13 | 164 | 0.0 | 0.0 | 0.00 | 0.00 | 0.00 | 88 | |
| 20260508081041 | 13 | 164 | 0.0 | 0.0 | 0.00 | 0.00 | 0.00 | 88 | |
| 20260508080839 | 13 | 164 | 0.0 | 0.0 | 0.00 | 0.00 | 0.00 | 88 | |
| 20260508080233 | 13 | 164 | 0.0 | 0.0 | 0.00 | 0.00 | 0.00 | 87 | |
| 20260508080032 | 13 | 164 | 0.0 | 0.0 | 0.00 | 0.00 | 0.00 | 87 | |
| 20260508075830 | 13 | 164 | 0.0 | 0.0 | 0.00 | 0.00 | 0.00 | 87 | |
| 20260508075628 | 13 | 164 | 0.0 | 0.0 | 0.00 | 0.00 | 0.00 | 87 | |
| 20260508075426 | 13 | 164 | 0.0 | 0.0 | 0.00 | 0.00 | 0.00 | 87 | |
| 20260508075021 | 13 | 164 | 0.0 | 0.0 | 0.00 | 0.00 | 0.00 | 87 | |
| 20260508074618 | 13 | 164 | 0.0 | 0.0 | 0.00 | 0.00 | 0.00 | 87 | |
| 20260508074417 | 13 | 164 | 0.0 | 0.0 | 0.00 | 0.00 | 0.00 | 87 | |
| 20260508074013 | 13 | 164 | 0.0 | 0.0 | 0.00 | 0.00 | 0.00 | 87 | |
| 20260508073609 | 13 | 164 | 0.0 | 0.0 | 0.00 | 0.00 | 0.00 | 87 | |
| 20260508073407 | 13 | 164 | 0.0 | 0.0 | 0.00 | 0.00 | 0.00 | 87 | |
| 20260508073205 | 13 | 164 | 0.0 | 0.0 | 0.00 | 0.00 | 0.00 | 87 | |
| 20260508073003 | 13 | 164 | 0.0 | 0.0 | 0.00 | 0.00 | 0.00 | 87 | |
| 20260508072802 | 13 | 164 | 0.0 | 0.0 | 0.00 | 0.00 | 0.00 | 87 | |
| 20260508072557 | 13 | 164 | 0.0 | 0.0 | 0.00 | 0.00 | 0.00 | 87 | |
| 20260508072357 | 13 | 164 | 0.0 | 0.0 | 0.00 | 0.00 | 0.00 | 87 | |
| 20260508072155 | 13 | 164 | 0.0 | 0.0 | 0.00 | 0.00 | 0.00 | 87 | |
| 20260508071954 | 13 | 164 | 0.0 | 0.0 | 0.00 | 0.00 | 0.00 | 87 | |
| 20260508071752 | 13 | 164 | 0.0 | 1.6 | 0.00 | 0.00 | 0.00 | 87 | |
| 20260508071549 | 13 | 164 | 0.0 | 1.6 | 0.00 | 0.00 | 0.00 | 87 | |
| 20260508071349 | 13 | 164 | 0.0 | 1.6 | 0.00 | 0.00 | 0.00 | 87 | |
| 20260508071144 | 13 | 164 | 0.0 | 0.0 | 0.00 | 0.00 | 0.00 | 87 | |
| 20260508070944 | 13 | 288 | 0.0 | 0.0 | 0.00 | 0.00 | 0.00 | 87 | |
| 20260508070742 | 13 | 288 | 0.0 | 0.0 | 0.00 | 0.00 | 0.00 | 87 | |
| 20260508070540 | 13 | 288 | 0.0 | 0.0 | 0.00 | 0.00 | 0.00 | 86 | |
| 20260508070338 | 13 | 288 | 0.0 | 0.0 | 0.00 | 0.00 | 0.00 | 87 | |
| 20260508070136 | 13 | 288 | 0.0 | 0.0 | 0.00 | 0.00 | 0.00 | 87 | |
| 20260508065934 | 13 | 288 | 0.0 | 0.0 | 0.00 | 0.00 | 0.00 | 86 | |
| 20260508065732 | 13 | 288 | 0.0 | 0.0 | 0.00 | 0.00 | 0.00 | 86 | |
| 20260508065530 | 13 | 288 | 0.0 | 0.0 | 0.00 | 0.00 | 0.00 | 86 | |
| 20260508065329 | 13 | 288 | 0.0 | 0.0 | 0.00 | 0.00 | 0.00 | 86 | |
| 20260508065127 | 14 | 288 | 0.0 | 0.0 | 0.00 | 0.00 | 0.00 | 86 | |
| 20260508064925 | 14 | 288 | 0.0 | 0.0 | 0.00 | 0.00 | 0.00 | 86 | |
| 20260508064723 | 14 | 288 | 0.0 | 0.0 | 0.00 | 0.00 | 0.00 | 86 | |
| 20260508064319 | 14 | 288 | 0.0 | 0.0 | 0.00 | 0.00 | 0.00 | 85 | |
| 20260508063916 | 14 | 288 | 0.0 | 0.0 | 0.00 | 0.00 | 0.00 | 85 | |
| 20260508063714 | 14 | 288 | 0.0 | 0.0 | 0.00 | 0.00 | 0.00 | 85 | |
| 20260508063514 | 14 | 288 | 0.0 | 0.0 | 0.00 | 0.00 | 0.00 | 85 | |
| 20260508063309 | 14 | 288 | 0.0 | 0.0 | 0.00 | 0.00 | 0.00 | 84 | |
| 20260508063107 | 14 | 288 | 0.0 | 0.0 | 0.00 | 0.00 | 0.00 | 84 | |
| 20260508062704 | 14 | 288 | 0.0 | 0.0 | 0.00 | 0.00 | 0.00 | 84 | |
| 20260508062502 | 14 | 288 | 0.0 | 0.0 | 0.00 | 0.00 | 0.00 | 84 | |
| 20260508062300 | 15 | 288 | 0.0 | 0.0 | 0.00 | 0.00 | 0.00 | 84 | |
| 20260508062058 | 15 | 288 | 0.0 | 0.0 | 0.00 | 0.00 | 0.00 | 84 | |
| 20260508061857 | 15 | 288 | 0.0 | 0.0 | 0.00 | 0.00 | 0.00 | 84 | |
| 20260508061653 | 15 | 288 | 0.0 | 0.0 | 0.00 | 0.00 | 0.00 | 84 | |
| 20260508061452 | 15 | 288 | 0.0 | 0.0 | 0.00 | 0.00 | 0.00 | 84 | |
| 20260508061251 | 15 | 288 | 0.0 | 0.0 | 0.00 | 0.00 | 0.00 | 84 | |
| 20260508061049 | 15 | 288 | 0.0 | 0.0 | 0.00 | 0.00 | 0.00 | 84 | |
| 20260508060847 | 15 | 288 | 0.0 | 0.0 | 0.00 | 0.00 | 0.00 | 84 | |
| 20260508060443 | 15 | 288 | 0.0 | 0.0 | 0.00 | 0.00 | 0.00 | 84 | |
| 20260508060241 | 15 | 288 | 0.0 | 0.0 | 0.00 | 0.00 | 0.00 | 84 | |
| 20260508060039 | 15 | 288 | 0.0 | 0.0 | 0.00 | 0.00 | 0.00 | 83 | |
| 20260508055837 | 15 | 288 | 0.0 | 0.0 | 0.00 | 0.00 | 0.00 | 83 | |
| 20260508055635 | 15 | 288 | 0.0 | 0.0 | 0.00 | 0.00 | 0.00 | 83 | |
| 20260508055232 | 15 | 288 | 0.0 | 3.2 | 0.00 | 0.00 | 0.00 | 83 | |
| 20260508055030 | 15 | 288 | 0.0 | 3.2 | 0.00 | 0.00 | 0.00 | 83 | |
| 20260508054828 | 15 | 288 | 0.0 | 3.2 | 0.00 | 0.00 | 0.00 | 83 | |
| 20260508054626 | 15 | 302 | 1.6 | 0.0 | 0.00 | 0.00 | 0.00 | 84 | |
| 20260508054424 | 15 | 286 | 0.0 | 0.0 | 0.00 | 0.00 | 0.00 | 84 | |
| 20260508054222 | 15 | 286 | 0.0 | 0.0 | 0.00 | 0.00 | 0.00 | 84 | |
| 20260508054020 | 15 | 286 | 0.0 | 0.0 | 0.00 | 0.00 | 0.00 | 84 | |
| 20260508053820 | 15 | 286 | 0.0 | 6.4 | 0.00 | 0.00 | 0.00 | 83 | |
| 20260508053617 | 15 | 286 | 0.0 | 6.4 | 0.00 | 0.00 | 0.00 | 83 | |
| 20260508053414 | 15 | 286 | 0.0 | 6.4 | 0.00 | 0.00 | 0.00 | 83 | |
| 20260508053011 | 15 | 302 | 6.4 | 4.8 | 0.00 | 0.00 | 0.00 | 83 | |
| 20260508052809 | 15 | 296 | 4.8 | 3.2 | 0.00 | 0.00 | 0.00 | 83 | |
| 20260508052605 | 15 | 298 | 1.6 | 3.2 | 0.00 | 0.00 | 0.00 | 81 | |
| 20260508052203 | 15 | 286 | 0.0 | 0.0 | 0.00 | 0.00 | 0.00 | 81 | |
| 20260508052000 | 15 | 286 | 0.0 | 0.0 | 0.00 | 0.00 | 0.00 | 81 | |
| 20260508051759 | 15 | 286 | 0.0 | 0.0 | 0.00 | 0.00 | 0.00 | 81 | |
| 20260508051558 | 15 | 286 | 0.0 | 0.0 | 0.00 | 0.00 | 0.00 | 80 | |
| 20260508051355 | 15 | 286 | 0.0 | 0.0 | 0.00 | 0.00 | 0.00 | 80 | |
| 20260508051154 | 16 | 286 | 0.0 | 0.0 | 0.00 | 0.00 | 0.00 | 80 | |
| 20260508050750 | 16 | 286 | 0.0 | 0.0 | 0.00 | 0.00 | 0.00 | 80 | |
| 20260508050547 | 16 | 286 | 0.0 | 0.0 | 0.00 | 0.00 | 0.00 | 80 | |
| 20260508050346 | 16 | 286 | 0.0 | 0.0 | 0.00 | 0.00 | 0.00 | 80 | |
| 20260508045942 | 16 | 286 | 0.0 | 0.0 | 0.00 | 0.00 | 0.00 | 80 | |
| 20260508045741 | 16 | 286 | 0.0 | 0.0 | 0.00 | 0.00 | 0.00 | 79 | |
| 20260508045336 | 16 | 286 | 0.0 | 0.0 | 0.00 | 0.00 | 0.00 | 80 | |
| 20260508045134 | 16 | 286 | 0.0 | 0.0 | 0.00 | 0.00 | 0.00 | 79 | |
| 20260508044729 | 16 | 286 | 0.0 | 0.0 | 0.00 | 0.00 | 0.00 | 79 | |
| 20260508044327 | 16 | 286 | 0.0 | 0.0 | 0.00 | 0.00 | 0.00 | 78 | |
| 20260508043923 | 16 | 286 | 0.0 | 0.0 | 0.00 | 0.00 | 0.00 | 78 | |
| 20260508043721 | 16 | 286 | 0.0 | 0.0 | 0.00 | 0.00 | 0.00 | 78 | |
| 20260508043519 | 16 | 286 | 0.0 | 0.0 | 0.00 | 0.00 | 0.00 | 78 | |
| 20260508043318 | 16 | 286 | 0.0 | 0.0 | 0.00 | 0.00 | 0.00 | 76 | |
| 20260508043115 | 16 | 286 | 0.0 | 0.0 | 0.00 | 0.00 | 0.00 | 76 | |
| 20260508042914 | 16 | 286 | 0.0 | 0.0 | 0.00 | 0.00 | 0.00 | 76 | |
| 20260508042712 | 16 | 286 | 0.0 | 0.0 | 0.00 | 0.00 | 0.00 | 75 | |
| 20260508042308 | 17 | 286 | 0.0 | 0.0 | 0.00 | 0.00 | 0.00 | 75 | |
| 20260508042107 | 17 | 286 | 0.0 | 0.0 | 0.00 | 0.00 | 0.00 | 75 | |
| 20260508041904 | 17 | 286 | 0.0 | 0.0 | 0.00 | 0.00 | 0.00 | 75 | |
| 20260508041702 | 17 | 286 | 0.0 | 0.0 | 0.00 | 0.00 | 0.00 | 75 | |
| 20260508041500 | 17 | 286 | 0.0 | 0.0 | 0.00 | 0.00 | 0.00 | 75 | |
| 20260508041258 | 17 | 286 | 0.0 | 0.0 | 0.00 | 0.00 | 0.00 | 75 | |
| 20260508041056 | 17 | 286 | 0.0 | 0.0 | 0.00 | 0.00 | 0.00 | 75 | |
| 20260508040854 | 17 | 286 | 0.0 | 0.0 | 0.00 | 0.00 | 0.00 | 75 | |
| 20260508040652 | 17 | 286 | 0.0 | 3.2 | 0.00 | 0.00 | 0.00 | 75 | |
| 20260508040451 | 17 | 286 | 0.0 | 3.2 | 0.00 | 0.00 | 0.00 | 75 | |
| 20260508040248 | 17 | 286 | 0.0 | 1.6 | 0.00 | 0.00 | 0.00 | 75 | |
| 20260508035845 | 17 | 295 | 3.2 | 1.6 | 0.00 | 0.00 | 0.00 | 74 | |
| 20260508035643 | 17 | 272 | 0.0 | 3.2 | 0.00 | 0.00 | 0.00 | 74 | |
| 20260508035441 | 17 | 272 | 0.0 | 3.2 | 0.00 | 0.00 | 0.00 | 74 | |
| 20260508035239 | 17 | 272 | 0.0 | 0.0 | 0.00 | 0.00 | 0.00 | 74 | |
| 20260508034634 | 17 | 255 | 0.0 | 0.0 | 0.00 | 0.00 | 0.00 | 74 | |
| 20260508034230 | 17 | 255 | 0.0 | 3.2 | 0.00 | 0.00 | 0.00 | 73 | |
| 20260508034028 | 17 | 255 | 0.0 | 3.2 | 0.00 | 0.00 | 0.00 | 73 | |
| 20260508033825 | 17 | 255 | 0.0 | 3.2 | 0.00 | 0.00 | 0.00 | 73 | |
| 20260508033421 | 17 | 289 | 1.6 | 3.2 | 0.00 | 0.00 | 0.00 | 73 | |
| 20260508033220 | 17 | 278 | 1.6 | 4.8 | 0.00 | 0.00 | 0.00 | 73 | |
| 20260508033018 | 17 | 265 | 0.0 | 4.8 | 0.00 | 0.00 | 0.00 | 73 | |
| 20260508032816 | 17 | 265 | 0.0 | 6.4 | 0.00 | 0.00 | 0.00 | 72 | |
| 20260508032615 | 18 | 265 | 0.0 | 6.4 | 0.00 | 0.00 | 0.00 | 72 | |
| 20260508032411 | 18 | 272 | 1.6 | 6.4 | 0.00 | 0.00 | 0.00 | 72 | |
| 20260508032210 | 18 | 248 | 0.0 | 6.4 | 0.00 | 0.00 | 0.00 | 72 | |
| 20260508031807 | 18 | 264 | 0.0 | 0.0 | 0.00 | 0.00 | 0.00 | 71 | |
| 20260508031605 | 18 | 253 | 0.0 | 0.0 | 0.00 | 0.00 | 0.00 | 71 | |
| 20260508031403 | 18 | 258 | 0.0 | 0.0 | 0.00 | 0.00 | 0.00 | 70 | |
| 20260508031204 | 18 | 258 | 0.0 | 0.0 | 0.00 | 0.00 | 0.00 | 70 | |
| 20260508030959 | 18 | 258 | 0.0 | 0.0 | 0.00 | 0.00 | 0.00 | 69 | |
| 20260508030757 | 18 | 258 | 0.0 | 0.0 | 0.00 | 0.00 | 0.00 | 70 | |
| 20260508030555 | 18 | 258 | 0.0 | 0.0 | 0.00 | 0.00 | 0.00 | 70 | |
| 20260508030354 | 18 | 258 | 0.0 | 0.0 | 0.00 | 0.00 | 0.00 | 69 | |
| 20260508030152 | 18 | 258 | 0.0 | 6.4 | 0.00 | 0.00 | 0.00 | 69 | |
| 20260508025948 | 18 | 258 | 0.0 | 6.4 | 0.00 | 0.00 | 0.00 | 69 | |
| 20260508025748 | 18 | 258 | 0.0 | 8.0 | 0.00 | 0.00 | 0.00 | 69 | |
| 20260508025344 | 18 | 279 | 4.8 | 8.0 | 0.00 | 0.00 | 0.00 | 69 | |
| 20260508024740 | 19 | 285 | 4.8 | 8.0 | 0.00 | 0.00 | 0.00 | 68 | |
| 20260508024132 | 19 | 277 | 6.4 | 9.7 | 0.00 | 0.00 | 0.00 | 67 | |
| 20260508023729 | 20 | 278 | 4.8 | 8.0 | 0.00 | 0.00 | 0.00 | 67 | |
| 20260508023527 | 20 | 272 | 6.4 | 8.0 | 0.00 | 0.00 | 0.00 | 66 | |
| 20260508023325 | 20 | 275 | 6.4 | 8.0 | 0.00 | 0.00 | 0.00 | 66 | |
| 20260508023123 | 20 | 293 | 3.2 | 9.7 | 0.00 | 0.00 | 0.00 | 65 | |
| 20260508022921 | 20 | 278 | 0.0 | 9.7 | 0.00 | 0.00 | 0.00 | 65 | |
| 20260508022719 | 20 | 278 | 4.8 | 11.3 | 0.00 | 0.00 | 0.00 | 65 | |
| 20260508022519 | 20 | 289 | 4.8 | 11.3 | 0.00 | 0.00 | 0.00 | 65 | |
| 20260508022114 | 20 | 282 | 8.0 | 9.7 | 0.00 | 0.00 | 0.00 | 64 | |
| 20260508021911 | 20 | 271 | 4.8 | 9.7 | 0.00 | 0.00 | 0.00 | 63 | |
| 20260508021709 | 20 | 271 | 4.8 | 12.9 | 0.00 | 0.00 | 0.00 | 63 | |
| 20260508021507 | 20 | 279 | 4.8 | 12.9 | 0.00 | 0.00 | 0.00 | 63 | |
| 20260508021306 | 20 | 262 | 6.4 | 11.3 | 0.00 | 0.00 | 0.00 | 63 | |
| 20260508021104 | 20 | 270 | 6.4 | 11.3 | 0.00 | 0.00 | 0.00 | 63 | |
| 20260508020902 | 20 | 271 | 9.7 | 11.3 | 0.00 | 0.00 | 0.00 | 62 | |
| 20260508020700 | 21 | 278 | 6.4 | 9.7 | 0.00 | 0.00 | 0.00 | 62 | |
| 20260508020458 | 21 | 291 | 6.4 | 9.7 | 0.00 | 0.00 | 0.00 | 61 | |
| 20260508015852 | 21 | 292 | 3.2 | 12.9 | 0.00 | 0.00 | 0.00 | 61 | |
| 20260508015650 | 21 | 268 | 6.4 | 11.3 | 0.00 | 0.00 | 0.00 | 61 | |
| 20260508015448 | 21 | 272 | 4.8 | 11.3 | 0.00 | 0.00 | 0.00 | 61 | |
| 20260508015044 | 21 | 267 | 6.4 | 14.5 | 0.00 | 0.00 | 0.00 | 60 | |
| 20260508014842 | 21 | 250 | 6.4 | 14.5 | 0.00 | 0.00 | 0.00 | 61 | |
| 20260508014438 | 21 | 293 | 4.8 | 12.9 | 0.00 | 0.00 | 0.00 | 60 | |
| 20260508014236 | 21 | 285 | 8.0 | 14.5 | 0.00 | 0.00 | 0.00 | 59 | |
| 20260508014034 | 21 | 274 | 9.7 | 14.5 | 0.00 | 0.00 | 0.00 | 59 | |
| 20260508013832 | 21 | 271 | 9.7 | 14.5 | 0.00 | 0.00 | 0.00 | 59 | |
| 20260508013630 | 21 | 281 | 6.4 | 11.3 | 0.00 | 0.00 | 0.00 | 58 | |
| 20260508013429 | 21 | 296 | 1.6 | 11.3 | 0.00 | 0.00 | 0.00 | 58 | |
| 20260508013227 | 21 | 265 | 11.3 | 12.9 | 0.00 | 0.00 | 0.00 | 58 | |
| 20260508013025 | 21 | 267 | 6.4 | 12.9 | 0.00 | 0.00 | 0.00 | 58 | |
| 20260508012823 | 21 | 306 | 1.6 | 12.9 | 0.00 | 0.00 | 0.00 | 58 | |
| 20260508012418 | 21 | 277 | 6.4 | 14.5 | 0.00 | 0.00 | 0.00 | 58 | |
| 20260508012217 | 22 | 265 | 9.7 | 12.9 | 0.00 | 0.00 | 0.00 | 57 | |
| 20260508012015 | 22 | 260 | 8.0 | 12.9 | 0.00 | 0.00 | 0.00 | 58 | |
| 20260508011813 | 22 | 293 | 6.4 | 12.9 | 0.00 | 0.00 | 0.00 | 58 | |
| 20260508011611 | 22 | 277 | 6.4 | 12.9 | 0.00 | 0.00 | 0.00 | 58 | |
| 20260508011409 | 21 | 279 | 11.3 | 12.9 | 0.00 | 0.00 | 0.00 | 58 | |
| 20260508011207 | 21 | 282 | 8.0 | 16.1 | 0.00 | 0.00 | 0.00 | 57 | |
| 20260508011004 | 22 | 285 | 6.4 | 16.1 | 0.00 | 0.00 | 0.00 | 57 |